[[{"header":{"parameterUnit":"m.s-1","parameterCategory":1,"la1":30.2991,"la2":30.254,"lo1":-89.0895,"lo2":-89.0444,"dy":0.0017,"dx":0.0017,"nx":28,"ny":28,"refTime":"2023-09-07T09:00:00:Z","depth":0,"parameterNumber":2,"parameterNumberName":"U-component_of_WINDS"},"data":[0,0,0,0,0,0,0,0,0,0,0,0,0,0,0,0,0,0,0,0,0,0,0,0,0,0,0,0,0,0,0,0,0,0,0,0,0,0,0,0,0,0,0,0,0,0,0,0,0,0,0,0,0,0,0,0,0,0,-1.2613,-1.2613,0,-1.2596,-1.2596,-1.2596,-1.2585,-1.2585,-1.2585,-1.2585,-1.2566,-1.2565,-1.2565,0,0,0,0,0,0,0,0,0,0,0,0,0,-1.2631,-1.2631,-1.2613,-1.2612,-1.2612,-1.2596,-1.2596,-1.2596,-1.2585,-1.2585,-1.2585,-1.2584,-1.2566,-1.2565,-1.2565,0,0,0,0,0,0,0,0,0,0,0,0,0,-1.262,-1.2631,-1.2613,-1.2605,-1.2604,-1.2596,-1.2596,-1.2595,-1.2585,-1.2585,-1.2585,-1.2584,-1.2566,-1.2565,-1.2565,-1.2562,0,0,-1.2563,-1.2562,0,0,0,0,0,0,0,0,-1.262,-1.2619,-1.2606,-1.2605,-1.2605,-1.2592,-1.2595,-1.2584,-1.2585,-1.2592,-1.2585,-1.2584,-1.2574,-1.2573,-1.257,-1.2562,-1.2561,-1.2563,-1.2562,-1.2562,-1.2562,0,0,0,0,0,0,0,-1.2621,-1.262,-1.2606,-1.2606,-1.2605,-1.2601,-1.2599,-1.2593,-1.2584,-1.2591,-1.2591,-1.2589,-1.2574,-1.2571,-1.257,-1.256,-1.2563,-1.2562,-1.2562,-1.2561,-1.2546,-1.2546,0,0,0,0,0,0,-1.2624,-1.262,-1.2607,-1.2606,-1.2612,-1.2601,-1.2599,-1.2596,-1.2584,-1.2582,-1.2589,-1.2588,-1.2572,-1.257,-1.2569,-1.2563,-1.2562,-1.2561,-1.2561,-1.2546,-1.2546,-1.2546,0,0,0,0,0,0,-1.2624,-1.2623,-1.2607,-1.2613,-1.261,-1.2601,-1.2598,-1.2596,-1.2593,-1.2582,-1.258,-1.2588,-1.2572,-1.257,-1.2563,-1.2563,-1.2561,-1.256,-1.2546,-1.2546,-1.2546,-1.2554,0,0,0,0,0,0,-1.2625,-1.2623,-1.2623,-1.2613,-1.261,-1.2603,-1.2598,-1.2596,-1.2592,-1.2591,-1.258,-1.2579,-1.2572,-1.2564,-1.2563,-1.2562,-1.256,-1.2546,-1.2546,-1.2546,-1.2554,-1.2554,-1.2555,0,0,0,0,0,-1.2625,-1.2626,-1.2623,-1.2622,-1.2611,-1.2604,-1.2602,-1.2594,-1.2592,-1.2591,-1.2584,-1.2579,-1.2563,-1.2564,-1.2562,-1.2561,-1.2546,-1.2546,-1.2546,-1.2553,-1.2554,-1.2555,0,0,0,0,0,0,-1.2637,-1.2625,-1.2621,-1.2619,-1.2612,-1.2602,-1.2601,-1.2596,-1.2589,-1.2589,-1.2579,-1.2576,-1.257,-1.2565,-1.2566,-1.2556,-1.2553,-1.2553,-1.256,-1.2561,-1.2561,-1.2562,-1.2559,0,0,0,0,0,-1.2639,-1.2636,-1.2625,-1.2624,-1.2621,-1.2611,-1.2608,-1.2602,-1.2595,-1.2592,-1.2584,-1.2576,-1.2569,-1.2564,-1.2558,-1.2552,-1.2549,-1.255,-1.2551,-1.2551,-1.2551,-1.2545,-1.2545,-1.2545,-1.2545,-1.2545,0,0,-1.2644,-1.2637,-1.2635,-1.2626,-1.262,-1.2615,-1.2609,-1.2605,-1.26,-1.2591,-1.2584,-1.2578,-1.2568,-1.2561,-1.2558,-1.2557,-1.255,-1.2551,-1.2552,-1.2551,-1.2545,-1.2545,-1.2545,-1.2545,-1.2545,-1.2545,0,0,-1.265,-1.2645,-1.2643,-1.2636,-1.2627,-1.262,-1.262,-1.2609,-1.2604,-1.2597,-1.259,-1.2583,-1.2572,-1.2564,-1.2559,-1.2558,-1.2553,-1.2556,-1.2559,-1.2553,-1.2553,-1.2553,-1.2551,-1.255,-1.2556,-1.2556,-1.2556,0,-1.2657,-1.265,-1.2642,-1.2637,-1.2632,-1.2623,-1.2619,-1.2613,-1.2602,-1.2598,-1.2596,-1.258,-1.2573,-1.2563,-1.2563,-1.2559,-1.2557,-1.2558,-1.2554,-1.2554,-1.2553,-1.2551,-1.2551,-1.2556,-1.2556,-1.2556,-1.2556,0,-1.2658,-1.2653,-1.2652,-1.2641,-1.2636,-1.2631,-1.2621,-1.2616,-1.261,-1.2603,-1.2594,-1.2585,-1.2575,-1.2572,-1.2567,-1.256,-1.2559,-1.2556,-1.2553,-1.2554,-1.2551,-1.2551,-1.2557,-1.2557,-1.2557,-1.2557,0,0,-1.2673,-1.2655,-1.2655,-1.2649,-1.2636,-1.2632,-1.2625,-1.2615,-1.2611,-1.2602,-1.2596,-1.2585,-1.258,-1.2574,-1.2568,-1.2563,-1.256,-1.2559,-1.2559,-1.2558,-1.255,-1.2552,-1.2551,-1.2556,-1.2556,-1.2555,-1.255,0,-1.2676,-1.2666,-1.2657,-1.2649,-1.2643,-1.2633,-1.2627,-1.2618,-1.261,-1.2602,-1.2593,-1.2585,-1.2581,-1.2577,-1.2571,-1.2561,-1.2558,-1.2562,-1.2548,-1.2547,-1.255,-1.255,-1.2553,-1.2549,-1.2549,-1.2549,-1.2549,0,-1.2679,-1.267,-1.2662,-1.2648,-1.2645,-1.264,-1.2629,-1.2622,-1.261,-1.2604,-1.2596,-1.2588,-1.2579,-1.2577,-1.2563,-1.2565,-1.2559,-1.2553,-1.2552,-1.255,-1.2548,-1.2547,-1.2547,-1.2546,-1.2548,-1.2548,-1.2548,0,-1.2688,-1.2675,-1.2668,-1.2663,-1.2646,-1.2643,-1.2635,-1.2624,-1.2617,-1.2606,-1.2601,-1.259,-1.2583,-1.2573,-1.2562,-1.2562,-1.2548,-1.2545,-1.2541,-1.2542,-1.2539,-1.2539,-1.2537,-1.2536,-1.2536,-1.2536,-1.2536,0,-1.2693,-1.2688,-1.2671,-1.2667,-1.266,-1.2648,-1.2641,-1.2633,-1.2622,-1.2614,-1.2604,-1.2596,-1.2582,-1.2572,-1.2563,-1.2551,-1.2548,-1.2542,-1.2539,-1.2543,-1.2543,-1.2538,-1.2538,-1.2536,-1.2536,-1.2536,-1.2536,0,-1.2703,-1.2692,-1.2683,-1.2667,-1.2663,-1.2658,-1.2644,-1.2638,-1.2629,-1.2618,-1.2615,-1.26,-1.2588,-1.2575,-1.2558,-1.2552,-1.254,-1.2537,-1.2544,-1.2542,-1.2539,-1.2539,-1.2532,-1.253,-1.2532,-1.2532,-1.2532,0,-1.2706,-1.2702,-1.2685,-1.2679,-1.2672,-1.2663,-1.2656,-1.2643,-1.2636,-1.262,-1.2615,-1.2602,-1.2591,-1.257,-1.2557,-1.2543,-1.2539,-1.2538,-1.2537,-1.2539,-1.2537,-1.2537,-1.2536,-1.2538,-1.2538,-1.2538,-1.2538,0,-1.2713,-1.2707,-1.2697,-1.2685,-1.2677,-1.2666,-1.2655,-1.2651,-1.2635,-1.2627,-1.2614,-1.2605,-1.2587,-1.2573,-1.2557,-1.2548,-1.2539,-1.2538,-1.2537,-1.2539,-1.2543,-1.2539,-1.2544,-1.2539,-1.2539,-1.2539,-1.2539,-1.2539,-1.2718,-1.2713,-1.27,-1.2689,-1.2679,-1.2668,-1.2661,-1.265,-1.2639,-1.2624,-1.2616,-1.2602,-1.2587,-1.2565,-1.2555,-1.2543,-1.2541,-1.2539,-1.2538,-1.2537,-1.2537,-1.2545,-1.254,-1.254,-1.254,-1.254,-1.254,0,-1.2723,-1.2713,-1.2703,-1.2688,-1.2678,-1.2672,-1.2658,-1.265,-1.2639,-1.2625,-1.2614,-1.2597,-1.2582,-1.2567,-1.2551,-1.2544,-1.2539,-1.254,-1.254,-1.2537,-1.2541,-1.2543,-1.2543,-1.2543,-1.2543,-1.2543,-1.2543,-1.2543,-1.2724,-1.2714,-1.2706,-1.269,-1.268,-1.2666,-1.2659,-1.2648,-1.2637,-1.2619,-1.2607,-1.2597,-1.2582,-1.2564,-1.2549,-1.2545,-1.2539,-1.254,-1.2534,-1.2538,-1.2538,-1.2537,-1.254,-1.2539,-1.2539,-1.2532,-1.2532,-1.2532]},{"header":{"parameterUnit":"m.s-1","parameterCategory":1,"la1":30.2991,"la2":30.254,"lo1":-89.0895,"lo2":-89.0444,"dy":0.0017,"dx":0.0017,"nx":28,"ny":28,"refTime":"2023-09-07T09:00:00:Z","depth":0,"parameterNumber":3,"parameterNumberName":"V-component_of_WINDS"},"data":[0,0,0,0,0,0,0,0,0,0,0,0,0,0,0,0,0,0,0,0,0,0,0,0,0,0,0,0,0,0,0,0,0,0,0,0,0,0,0,0,0,0,0,0,0,0,0,0,0,0,0,0,0,0,0,0,0,0,-2.0481,-2.0482,0,-2.0499,-2.0499,-2.0499,-2.0521,-2.0521,-2.0521,-2.0522,-2.0537,-2.0537,-2.0537,0,0,0,0,0,0,0,0,0,0,0,0,0,-2.0463,-2.0463,-2.0481,-2.0482,-2.0482,-2.0499,-2.0499,-2.0499,-2.0521,-2.0521,-2.0522,-2.0522,-2.0537,-2.0537,-2.0537,0,0,0,0,0,0,0,0,0,0,0,0,0,-2.0475,-2.0464,-2.0481,-2.0495,-2.0496,-2.0499,-2.0499,-2.0499,-2.0521,-2.0521,-2.0522,-2.0522,-2.0537,-2.0537,-2.0537,-2.0527,0,0,-2.0538,-2.0538,0,0,0,0,0,0,0,0,-2.0474,-2.0475,-2.0492,-2.0494,-2.0495,-2.0508,-2.0498,-2.0509,-2.052,-2.0511,-2.0522,-2.0522,-2.0527,-2.0528,-2.053,-2.0528,-2.0529,-2.0538,-2.0538,-2.0538,-2.0538,0,0,0,0,0,0,0,-2.0473,-2.0475,-2.0488,-2.0493,-2.0494,-2.0499,-2.0501,-2.05,-2.0516,-2.0512,-2.0514,-2.0516,-2.0528,-2.053,-2.053,-2.0529,-2.0538,-2.0538,-2.0538,-2.0538,-2.0518,-2.0517,0,0,0,0,0,0,-2.0471,-2.0474,-2.0488,-2.0489,-2.0486,-2.0498,-2.0501,-2.0503,-2.0516,-2.0518,-2.0515,-2.0516,-2.0529,-2.053,-2.0531,-2.0519,-2.0538,-2.0538,-2.0538,-2.0518,-2.0518,-2.0517,0,0,0,0,0,0,-2.047,-2.0472,-2.0487,-2.0482,-2.0484,-2.0498,-2.0501,-2.0503,-2.0506,-2.0518,-2.0521,-2.0514,-2.053,-2.0531,-2.0528,-2.052,-2.0538,-2.0538,-2.0519,-2.0518,-2.0517,-2.0495,0,0,0,0,0,0,-2.047,-2.0472,-2.0469,-2.0482,-2.0484,-2.0484,-2.05,-2.0503,-2.0506,-2.0508,-2.0518,-2.052,-2.053,-2.0528,-2.0528,-2.052,-2.0538,-2.052,-2.0519,-2.0518,-2.0497,-2.0494,-2.0491,0,0,0,0,0,-2.0469,-2.0462,-2.0469,-2.047,-2.0481,-2.0484,-2.0485,-2.0497,-2.0505,-2.0502,-2.051,-2.052,-2.0521,-2.0527,-2.0528,-2.052,-2.052,-2.0519,-2.0518,-2.0498,-2.0494,-2.0491,0,0,0,0,0,0,-2.0448,-2.0464,-2.0472,-2.0469,-2.0475,-2.0488,-2.0484,-2.0493,-2.0497,-2.0498,-2.0512,-2.0515,-2.0509,-2.0515,-2.0521,-2.051,-2.0522,-2.0521,-2.0507,-2.0503,-2.05,-2.0499,-2.0538,0,0,0,0,0,-2.0443,-2.0444,-2.0458,-2.0454,-2.0457,-2.047,-2.0471,-2.048,-2.0487,-2.0489,-2.0497,-2.0502,-2.0503,-2.0504,-2.0506,-2.0498,-2.0499,-2.0492,-2.049,-2.0487,-2.0485,-2.0479,-2.0476,-2.0513,-2.0513,-2.0513,0,0,-2.0432,-2.0441,-2.0441,-2.045,-2.0456,-2.0456,-2.0472,-2.0472,-2.0471,-2.0489,-2.0486,-2.0492,-2.0499,-2.0493,-2.049,-2.0497,-2.0476,-2.0485,-2.0483,-2.0483,-2.0478,-2.0474,-2.0471,-2.0512,-2.0512,-2.0512,0,0,-2.0412,-2.042,-2.0417,-2.0422,-2.0431,-2.0439,-2.0439,-2.045,-2.0454,-2.0452,-2.0465,-2.0464,-2.0466,-2.047,-2.0472,-2.0452,-2.0461,-2.0453,-2.0437,-2.0431,-2.0428,-2.0426,-2.0416,-2.0413,-2.0451,-2.0451,-2.0451,0,-2.0398,-2.04,-2.0414,-2.0412,-2.0415,-2.0431,-2.0427,-2.0431,-2.044,-2.044,-2.0448,-2.045,-2.0455,-2.0449,-2.0444,-2.0446,-2.0444,-2.0451,-2.0428,-2.0425,-2.0423,-2.0414,-2.0411,-2.045,-2.045,-2.045,-2.045,0,-2.038,-2.0381,-2.0377,-2.0385,-2.0387,-2.0384,-2.0397,-2.0397,-2.0405,-2.0412,-2.0408,-2.0416,-2.0419,-2.0418,-2.0426,-2.0413,-2.0416,-2.0425,-2.0437,-2.0418,-2.041,-2.0407,-2.0448,-2.0448,-2.0449,-2.0449,0,0,-2.0348,-2.0363,-2.0361,-2.0364,-2.0374,-2.0374,-2.0371,-2.0375,-2.0374,-2.0379,-2.0375,-2.0376,-2.0384,-2.0387,-2.0395,-2.039,-2.0371,-2.04,-2.04,-2.0392,-2.0354,-2.0346,-2.0342,-2.0378,-2.0377,-2.0377,-2.0353,0,-2.0329,-2.0325,-2.0337,-2.033,-2.033,-2.0345,-2.0342,-2.0347,-2.0353,-2.0353,-2.036,-2.0359,-2.0371,-2.0372,-2.0368,-2.0375,-2.0363,-2.0377,-2.0373,-2.0372,-2.0369,-2.0338,-2.033,-2.0307,-2.035,-2.0349,-2.0349,0,-2.0307,-2.031,-2.0303,-2.0312,-2.0312,-2.031,-2.0312,-2.0313,-2.0318,-2.0323,-2.0325,-2.0334,-2.033,-2.0343,-2.0336,-2.0345,-2.0344,-2.0347,-2.0346,-2.0345,-2.0358,-2.0334,-2.03,-2.0295,-2.0345,-2.0345,-2.0345,0,-2.0281,-2.0284,-2.028,-2.0282,-2.0293,-2.0291,-2.0295,-2.0301,-2.0301,-2.0304,-2.0304,-2.0305,-2.0305,-2.0306,-2.0315,-2.0324,-2.0306,-2.032,-2.0308,-2.0308,-2.0303,-2.0303,-2.0266,-2.0305,-2.0305,-2.0305,-2.0305,0,-2.0258,-2.0252,-2.0269,-2.0266,-2.0259,-2.0272,-2.0265,-2.0271,-2.0276,-2.0273,-2.0286,-2.0283,-2.0296,-2.0294,-2.0301,-2.0293,-2.0294,-2.0296,-2.0298,-2.0294,-2.0293,-2.0292,-2.0293,-2.0304,-2.0305,-2.0305,-2.0305,0,-2.0228,-2.0239,-2.0235,-2.0245,-2.0248,-2.0242,-2.025,-2.0247,-2.0254,-2.025,-2.025,-2.0261,-2.0258,-2.0268,-2.0268,-2.0272,-2.0259,-2.0265,-2.0258,-2.0259,-2.0245,-2.0246,-2.0205,-2.0199,-2.0244,-2.0244,-2.0243,0,-2.0212,-2.0208,-2.0217,-2.0217,-2.022,-2.0219,-2.022,-2.0232,-2.0232,-2.0236,-2.0232,-2.0231,-2.0231,-2.0226,-2.0233,-2.0232,-2.0236,-2.0222,-2.0236,-2.0232,-2.0233,-2.0233,-2.0231,-2.0219,-2.0218,-2.0218,-2.0217,0,-2.0181,-2.0186,-2.0187,-2.0189,-2.0189,-2.0191,-2.0194,-2.0192,-2.0205,-2.0204,-2.0202,-2.0202,-2.0201,-2.0199,-2.0199,-2.0202,-2.021,-2.0213,-2.021,-2.0205,-2.02,-2.02,-2.0248,-2.0214,-2.0214,-2.0214,-2.0214,-2.0215,-2.0156,-2.0152,-2.0158,-2.0158,-2.0161,-2.0163,-2.016,-2.0166,-2.0165,-2.0166,-2.0173,-2.0169,-2.0172,-2.0174,-2.0175,-2.0171,-2.0178,-2.0174,-2.0172,-2.017,-2.0167,-2.0202,-2.0172,-2.0172,-2.0172,-2.0172,-2.0172,0,-2.0124,-2.0128,-2.0128,-2.0131,-2.013,-2.014,-2.0143,-2.0141,-2.0138,-2.0141,-2.014,-2.0136,-2.0134,-2.014,-2.0138,-2.0134,-2.0138,-2.0133,-2.0132,-2.0132,-2.0163,-2.0165,-2.0129,-2.0129,-2.0129,-2.0129,-2.0129,-2.0129,-2.0107,-2.0101,-2.0106,-2.0101,-2.0105,-2.0102,-2.0102,-2.0103,-2.0105,-2.0101,-2.0099,-2.0104,-2.0107,-2.0105,-2.0103,-2.0105,-2.0102,-2.0095,-2.0098,-2.0126,-2.013,-2.0134,-2.0136,-2.0095,-2.0095,-2.0068,-2.0067,-2.0067]}]]